Location: Gamarra
(10.0780°N, 67.4929°W)
Time: 09:41:19
(UTC+00:00)

Atlas Centaur 2 - Pass Details

Date: 13 April 2024
Orbit: 458 x 1278 km, 30.4° (Epoch: 22 May)

Event Time Altitude Azimuth Distance (km) Brightness Sun altitude
Rises 23:27:26 0° 246° (WSW) 3,588 6.4 -12.2°
Reaches altitude 10° 23:30:23 10° 249° (WSW) 2,498 5.6 -12.9°
Maximum altitude 23:36:10 62° 329° (NNW) 805 2.3 -14.3°
Enters shadow 23:40:35 11° 50° (NE) 1,919 3.7 -15.3°
